Time,TemperatureF,DewpointF,PressureIn,WindDirection,WindDirectionDegrees,WindSpeedMPH,WindSpeedGustMPH,Humidity,HourlyPrecipIn,Conditions,Clouds,dailyrainin,SolarRadiationWatts/m^2,SoftwareType,DateUTC
2013-07-20 00:02:00,68.0,66.0,29.70,East,97,0.0,-999.0,94,-99.99,,,-99.99,0.000000,,2013-07-20 04:02:00,
2013-07-20 00:12:00,68.0,67.0,29.70,East,97,1.0,-999.0,96,-99.99,,,-99.99,0.000000,,2013-07-20 04:12:00,
2013-07-20 00:33:00,68.0,67.0,29.71,SE,141,2.0,-999.0,96,-99.99,,,-99.99,0.000000,,2013-07-20 04:33:00,
2013-07-20 00:44:00,69.0,67.0,29.71,SE,145,0.0,-999.0,92,-99.99,,,-99.99,0.000000,,2013-07-20 04:44:00,
2013-07-20 00:52:00,69.0,66.0,29.71,SE,145,0.0,-999.0,91,-99.99,,,-99.99,0.000000,,2013-07-20 04:52:00,
2013-07-20 01:02:00,69.0,66.0,29.71,SE,145,0.0,-999.0,91,-99.99,,,-99.99,0.000000,,2013-07-20 05:02:00,
2013-07-20 01:22:00,69.0,67.0,29.69,SE,145,0.0,-999.0,92,-99.99,,,-99.99,0.000000,,2013-07-20 05:22:00,
2013-07-20 01:32:00,69.0,66.0,29.68,SE,141,1.0,-999.0,91,-99.99,,,-99.99,0.000000,,2013-07-20 05:32:00,
2013-07-20 01:52:00,69.0,66.0,29.68,SE,127,0.0,-999.0,91,-99.99,,,-99.99,0.000000,,2013-07-20 05:52:00,
2013-07-20 02:01:00,69.0,66.0,29.68,SE,127,0.0,-999.0,91,-99.99,,,-99.99,0.000000,,2013-07-20 06:01:00,
2013-07-20 02:11:00,69.0,67.0,29.68,SE,126,0.0,-999.0,92,-99.99,,,-99.99,0.000000,,2013-07-20 06:11:00,
2013-07-20 02:32:00,69.0,67.0,29.69,SE,127,0.0,-999.0,94,-99.99,,,-99.99,0.000000,,2013-07-20 06:32:00,
2013-07-20 02:43:00,69.0,68.0,29.68,SE,126,1.0,-999.0,95,-99.99,,,-99.99,0.000000,,2013-07-20 06:43:00,
2013-07-20 02:52:00,68.0,67.0,29.67,SE,127,2.0,-999.0,95,-99.99,,,-99.99,0.000000,,2013-07-20 06:52:00,
2013-07-20 03:01:00,68.0,67.0,29.67,SE,127,2.0,-999.0,95,-99.99,,,-99.99,0.000000,,2013-07-20 07:01:00,
2013-07-20 03:33:00,68.0,67.0,29.66,SE,126,1.0,-999.0,96,-99.99,,,-99.99,0.000000,,2013-07-20 07:33:00,
2013-07-20 03:44:00,68.0,67.0,29.66,SSE,157,1.0,-999.0,96,-99.99,,,-99.99,0.000000,,2013-07-20 07:44:00,
2013-07-20 03:54:00,68.0,67.0,29.66,SSE,157,1.0,-999.0,96,-99.99,,,-99.99,0.000000,,2013-07-20 07:54:00,
2013-07-20 04:02:00,69.0,66.0,29.65,South,186,1.0,-999.0,89,-99.99,,,-99.99,0.000000,,2013-07-20 08:02:00,
2013-07-20 04:11:00,70.0,66.0,29.66,SSE,164,0.0,-999.0,86,-99.99,,,-99.99,0.000000,,2013-07-20 08:11:00,
2013-07-20 04:22:00,70.0,66.0,29.66,SSE,164,0.0,-999.0,86,-99.99,,,-99.99,0.000000,,2013-07-20 08:22:00,
2013-07-20 04:32:00,70.0,66.0,29.66,SSE,164,0.0,-999.0,86,-99.99,,,-99.99,0.000000,,2013-07-20 08:32:00,
2013-07-20 04:44:00,69.0,66.0,29.66,SSE,164,0.0,-999.0,89,-99.99,,,-99.99,0.000000,,2013-07-20 08:44:00,
2013-07-20 04:52:00,68.0,65.0,29.67,SSE,164,0.0,-999.0,91,-99.99,,,-99.99,0.000000,,2013-07-20 08:52:00,
2013-07-20 05:02:00,68.0,65.0,29.67,SSE,164,0.0,-999.0,91,-99.99,,,-99.99,0.000000,,2013-07-20 09:02:00,
2013-07-20 05:11:00,68.0,66.0,29.68,SSE,164,0.0,-999.0,93,-99.99,,,-99.99,0.000000,,2013-07-20 09:11:00,
2013-07-20 05:22:00,68.0,67.0,29.68,SSE,164,0.0,-999.0,95,-99.99,,,-99.99,0.000000,,2013-07-20 09:22:00,
2013-07-20 05:33:00,68.0,67.0,29.68,SSE,164,0.0,-999.0,95,-99.99,,,-99.99,0.000000,,2013-07-20 09:33:00,
2013-07-20 05:43:00,68.0,67.0,29.68,SSE,164,0.0,-999.0,97,-99.99,,,-99.99,0.000000,,2013-07-20 09:43:00,
2013-07-20 05:53:00,68.0,67.0,29.68,SSE,164,0.0,-999.0,97,-99.99,,,-99.99,0.000000,,2013-07-20 09:53:00,
2013-07-20 06:01:00,68.0,68.0,29.69,SSE,164,0.0,-999.0,99,-99.99,,,-99.99,0.000000,,2013-07-20 10:01:00,
2013-07-20 06:11:00,68.0,68.0,29.68,SSE,164,0.0,-999.0,100,-99.99,,,-99.99,0.000000,,2013-07-20 10:11:00,
2013-07-20 06:32:00,68.0,68.0,29.66,SSE,164,0.0,-999.0,100,-99.99,,,-99.99,5.000000,,2013-07-20 10:32:00,
2013-07-20 06:42:00,68.0,68.0,29.67,SE,144,2.0,-999.0,100,-99.99,,,-99.99,16.000000,,2013-07-20 10:42:00,
2013-07-20 06:52:00,68.0,68.0,29.67,SE,144,2.0,-999.0,100,-99.99,,,-99.99,16.000000,,2013-07-20 10:52:00,
2013-07-20 07:02:00,68.0,68.0,29.68,SSE,161,2.0,-999.0,100,-99.99,,,-99.99,9.000000,,2013-07-20 11:02:00,
2013-07-20 07:11:00,68.0,68.0,29.67,SE,138,2.0,-999.0,100,-99.99,,,-99.99,39.000000,,2013-07-20 11:11:00,
2013-07-20 07:22:00,68.0,68.0,29.67,SE,138,2.0,-999.0,100,-99.99,,,-99.99,39.000000,,2013-07-20 11:22:00,
2013-07-20 07:32:00,68.0,68.0,29.67,SSE,151,0.0,-999.0,100,-99.99,,,-99.99,26.000000,,2013-07-20 11:32:00,
2013-07-20 07:43:00,68.0,68.0,29.67,SSE,151,0.0,-999.0,100,-99.99,,,-99.99,63.000000,,2013-07-20 11:43:00,
2013-07-20 07:52:00,68.0,68.0,29.67,SSE,151,0.0,-999.0,100,-99.99,,,-99.99,63.000000,,2013-07-20 11:52:00,
2013-07-20 08:01:00,69.0,69.0,29.66,SSE,151,1.0,-999.0,100,-99.99,,,-99.99,230.000000,,2013-07-20 12:01:00,
2013-07-20 08:22:00,70.0,70.0,29.65,SE,145,0.0,-999.0,100,-99.99,,,-99.99,315.000000,,2013-07-20 12:22:00,
2013-07-20 08:32:00,71.0,71.0,29.64,SE,141,3.0,-999.0,100,-99.99,,,-99.99,246.000000,,2013-07-20 12:32:00,
2013-07-20 08:52:00,73.0,71.0,29.67,SE,140,0.0,-999.0,95,-99.99,,,-99.99,120.000000,,2013-07-20 12:52:00,
2013-07-20 09:02:00,73.0,71.0,29.67,SE,140,0.0,-999.0,95,-99.99,,,-99.99,120.000000,,2013-07-20 13:02:00,
2013-07-20 09:32:00,74.0,67.0,29.67,SW,234,2.0,-999.0,78,-99.99,,,-99.99,187.000000,,2013-07-20 13:32:00,
2013-07-20 09:53:00,75.0,66.0,29.68,WSW,251,2.0,-999.0,74,-99.99,,,-99.99,199.000000,,2013-07-20 13:53:00,
2013-07-20 10:02:00,75.0,66.0,29.67,WNW,301,1.0,-999.0,74,-99.99,,,-99.99,232.000000,,2013-07-20 14:02:00,
2013-07-20 10:32:00,76.0,66.0,29.68,NW,308,2.0,-999.0,72,-99.99,,,-99.99,229.000000,,2013-07-20 14:32:00,
2013-07-20 10:43:00,76.0,65.0,29.68,NW,320,2.0,-999.0,70,-99.99,,,-99.99,341.000000,,2013-07-20 14:43:00,
2013-07-20 11:01:00,77.0,65.0,29.69,NW,318,3.0,-999.0,67,-99.99,,,-99.99,447.000000,,2013-07-20 15:01:00,
2013-07-20 11:11:00,77.0,64.0,29.68,NW,323,3.0,-999.0,65,-99.99,,,-99.99,255.000000,,2013-07-20 15:11:00,
2013-07-20 11:23:00,77.0,64.0,29.68,NW,313,4.0,-999.0,65,-99.99,,,-99.99,294.000000,,2013-07-20 15:23:00,
2013-07-20 11:33:00,77.0,64.0,29.68,NW,313,4.0,-999.0,65,-99.99,,,-99.99,294.000000,,2013-07-20 15:33:00,
2013-07-20 11:44:00,77.0,64.0,29.68,NW,315,4.0,-999.0,64,-99.99,,,-99.99,874.000000,,2013-07-20 15:44:00,
2013-07-20 11:53:00,78.0,64.0,29.68,NW,312,5.0,-999.0,63,-99.99,,,-99.99,699.000000,,2013-07-20 15:53:00,
2013-07-20 12:01:00,78.0,64.0,29.68,NW,312,5.0,-999.0,63,-99.99,,,-99.99,699.000000,,2013-07-20 16:01:00,
2013-07-20 12:11:00,77.0,64.0,29.69,West,280,5.0,-999.0,64,-99.99,,,-99.99,327.000000,,2013-07-20 16:11:00,
2013-07-20 12:22:00,78.0,65.0,29.68,West,280,3.0,-999.0,65,-99.99,,,-99.99,287.000000,,2013-07-20 16:22:00,
2013-07-20 12:32:00,78.0,65.0,29.68,West,280,3.0,-999.0,65,-99.99,,,-99.99,287.000000,,2013-07-20 16:32:00,
2013-07-20 12:43:00,78.0,66.0,29.67,NW,318,3.0,-999.0,66,-99.99,,,-99.99,656.000000,,2013-07-20 16:43:00,
2013-07-20 12:52:00,78.0,65.0,29.67,SW,230,3.0,-999.0,64,-99.99,,,-99.99,355.000000,,2013-07-20 16:52:00,
2013-07-20 13:02:00,78.0,65.0,29.67,SW,230,3.0,-999.0,64,-99.99,,,-99.99,355.000000,,2013-07-20 17:02:00,
2013-07-20 13:11:00,78.0,64.0,29.67,WNW,301,4.0,-999.0,62,-99.99,,,-99.99,171.000000,,2013-07-20 17:11:00,
2013-07-20 13:22:00,77.0,64.0,29.68,West,271,4.0,-999.0,64,-99.99,,,-99.99,199.000000,,2013-07-20 17:22:00,
2013-07-20 13:32:00,77.0,64.0,29.68,West,271,4.0,-999.0,64,-99.99,,,-99.99,199.000000,,2013-07-20 17:32:00,
2013-07-20 13:43:00,77.0,64.0,29.68,WSW,243,3.0,-999.0,65,-99.99,,,-99.99,83.000000,,2013-07-20 17:43:00,
2013-07-20 13:53:00,76.0,64.0,29.68,West,278,5.0,-999.0,66,-99.99,,,-99.99,246.000000,,2013-07-20 17:53:00,
2013-07-20 14:01:00,76.0,64.0,29.68,West,278,5.0,-999.0,66,-99.99,,,-99.99,246.000000,,2013-07-20 18:01:00,
2013-07-20 14:12:00,76.0,64.0,29.67,NW,311,2.0,-999.0,67,-99.99,,,-99.99,151.000000,,2013-07-20 18:12:00,
2013-07-20 14:25:00,76.0,65.0,29.67,NW,312,1.0,-999.0,69,-99.99,,,-99.99,40.000000,,2013-07-20 18:25:00,
2013-07-20 14:36:00,76.0,65.0,29.67,NW,312,1.0,-999.0,69,-99.99,,,-99.99,40.000000,,2013-07-20 18:36:00,
2013-07-20 14:47:00,75.0,66.0,29.69,WNW,302,6.0,-999.0,73,-99.99,,,-99.99,269.000000,,2013-07-20 18:47:00,
2013-07-20 14:56:00,72.0,65.0,29.70,NW,326,5.0,-999.0,79,-99.99,,,-99.99,60.000000,,2013-07-20 18:56:00,
2013-07-20 15:06:00,72.0,65.0,29.70,NW,326,5.0,-999.0,79,-99.99,,,-99.99,60.000000,,2013-07-20 19:06:00,
2013-07-20 15:16:00,70.0,65.0,29.71,NW,320,4.0,-999.0,83,-99.99,,,-99.99,26.000000,,2013-07-20 19:16:00,
2013-07-20 15:26:00,68.0,63.0,29.72,WNW,288,1.0,-999.0,85,-99.99,,,-99.99,62.000000,,2013-07-20 19:26:00,
2013-07-20 15:35:00,68.0,63.0,29.72,WNW,288,1.0,-999.0,85,-99.99,,,-99.99,62.000000,,2013-07-20 19:35:00,
2013-07-20 15:44:00,66.0,61.0,29.73,WNW,291,0.0,-999.0,85,-99.99,,,-99.99,113.000000,,2013-07-20 19:44:00,
2013-07-20 16:06:00,65.0,61.0,29.73,ESE,120,1.0,-999.0,86,-99.99,,,-99.99,93.000000,,2013-07-20 20:06:00,
2013-07-20 16:16:00,65.0,62.0,29.73,SE,130,3.0,-999.0,89,-99.99,,,-99.99,223.000000,,2013-07-20 20:16:00,
2013-07-20 16:24:00,65.0,62.0,29.73,SE,130,3.0,-999.0,89,-99.99,,,-99.99,223.000000,,2013-07-20 20:24:00,
2013-07-20 16:35:00,65.0,62.0,29.72,SE,136,2.0,-999.0,90,-99.99,,,-99.99,333.000000,,2013-07-20 20:35:00,
2013-07-20 16:56:00,68.0,63.0,29.72,SSE,157,0.0,-999.0,84,-99.99,,,-99.99,121.000000,,2013-07-20 20:56:00,
2013-07-20 17:07:00,68.0,63.0,29.72,SSE,157,0.0,-999.0,84,-99.99,,,-99.99,121.000000,,2013-07-20 21:07:00,
2013-07-20 17:15:00,69.0,65.0,29.72,SSE,157,0.0,-999.0,87,-99.99,,,-99.99,211.000000,,2013-07-20 21:15:00,
2013-07-20 17:28:00,69.0,63.0,29.72,SSE,157,0.0,-999.0,82,-99.99,,,-99.99,558.000000,,2013-07-20 21:28:00,
2013-07-20 17:35:00,69.0,63.0,29.72,SSE,157,0.0,-999.0,82,-99.99,,,-99.99,558.000000,,2013-07-20 21:35:00,
2013-07-20 17:46:00,71.0,63.0,29.72,WNW,284,0.0,-999.0,77,-99.99,,,-99.99,144.000000,,2013-07-20 21:46:00,
2013-07-20 17:55:00,72.0,62.0,29.72,NW,312,2.0,-999.0,71,-99.99,,,-99.99,150.000000,,2013-07-20 21:55:00,
2013-07-20 18:08:00,72.0,62.0,29.72,NW,312,2.0,-999.0,71,-99.99,,,-99.99,150.000000,,2013-07-20 22:08:00,
2013-07-20 18:18:00,72.0,62.0,29.73,NW,305,2.0,-999.0,70,-99.99,,,-99.99,102.000000,,2013-07-20 22:18:00,
2013-07-20 18:36:00,71.0,59.0,29.72,WNW,288,1.0,-999.0,66,-99.99,,,-99.99,134.000000,,2013-07-20 22:36:00,
2013-07-20 18:48:00,71.0,59.0,29.72,NW,320,0.0,-999.0,67,-99.99,,,-99.99,116.000000,,2013-07-20 22:48:00,
2013-07-20 18:55:00,71.0,59.0,29.73,NW,318,0.0,-999.0,65,-99.99,,,-99.99,56.000000,,2013-07-20 22:55:00,
2013-07-20 19:06:00,71.0,59.0,29.73,NW,318,0.0,-999.0,65,-99.99,,,-99.99,56.000000,,2013-07-20 23:06:00,
2013-07-20 19:17:00,72.0,61.0,29.73,NW,318,0.0,-999.0,68,-99.99,,,-99.99,63.000000,,2013-07-20 23:17:00,
2013-07-20 19:29:00,71.0,60.0,29.73,NW,318,0.0,-999.0,68,-99.99,,,-99.99,53.000000,,2013-07-20 23:29:00,
2013-07-20 19:38:00,71.0,60.0,29.73,NW,318,0.0,-999.0,68,-99.99,,,-99.99,53.000000,,2013-07-20 23:38:00,
2013-07-20 19:45:00,71.0,61.0,29.73,NW,318,0.0,-999.0,70,-99.99,,,-99.99,37.000000,,2013-07-20 23:45:00,
2013-07-20 19:56:00,70.0,61.0,29.74,NW,318,0.0,-999.0,73,-99.99,,,-99.99,37.000000,,2013-07-20 23:56:00,
2013-07-20 20:09:00,70.0,61.0,29.74,NW,318,0.0,-999.0,73,-99.99,,,-99.99,37.000000,,2013-07-21 00:09:00,
2013-07-20 20:18:00,70.0,62.0,29.74,NW,318,0.0,-999.0,76,-99.99,,,-99.99,42.000000,,2013-07-21 00:18:00,
2013-07-20 20:24:00,70.0,62.0,29.74,NW,318,0.0,-999.0,76,-99.99,,,-99.99,42.000000,,2013-07-21 00:24:00,
2013-07-20 20:45:00,68.0,62.0,29.74,NW,318,0.0,-999.0,80,-99.99,,,-99.99,14.000000,,2013-07-21 00:45:00,
2013-07-20 20:55:00,67.0,61.0,29.75,NW,318,0.0,-999.0,81,-99.99,,,-99.99,9.000000,,2013-07-21 00:55:00,
2013-07-20 21:07:00,67.0,61.0,29.75,NW,318,0.0,-999.0,81,-99.99,,,-99.99,9.000000,,2013-07-21 01:07:00,
2013-07-20 21:13:00,67.0,61.0,29.75,NW,318,0.0,-999.0,82,-99.99,,,-99.99,0.000000,,2013-07-21 01:13:00,
2013-07-20 21:36:00,66.0,61.0,29.76,NW,318,0.0,-999.0,84,-99.99,,,-99.99,0.000000,,2013-07-21 01:36:00,
2013-07-20 21:48:00,-999.0,-99.9,29.76,NW,315,0.0,-999.0,-999,-99.99,,,-99.99,,,2013-07-21 01:48:00,
2013-07-20 21:57:00,65.0,61.0,29.77,NW,318,0.0,-999.0,86,-99.99,,,-99.99,0.000000,,2013-07-21 01:57:00,
2013-07-20 22:19:00,65.0,61.0,29.77,NW,318,0.0,-999.0,88,-99.99,,,-99.99,0.000000,,2013-07-21 02:19:00,
2013-07-20 22:37:00,65.0,61.0,29.77,NW,318,0.0,-999.0,88,-99.99,,,-99.99,0.000000,,2013-07-21 02:37:00,
2013-07-20 22:44:00,64.0,61.0,29.79,NW,318,0.0,-999.0,91,-99.99,,,-99.99,0.000000,,2013-07-21 02:44:00,
2013-07-20 22:55:00,63.0,61.0,29.79,NW,318,0.0,-999.0,92,-99.99,,,-99.99,0.000000,,2013-07-21 02:55:00,
2013-07-20 23:05:00,63.0,61.0,29.79,NW,318,0.0,-999.0,92,-99.99,,,-99.99,0.000000,,2013-07-21 03:05:00,
2013-07-20 23:15:00,63.0,61.0,29.79,NW,318,0.0,-999.0,92,-99.99,,,-99.99,0.000000,,2013-07-21 03:15:00,
2013-07-20 23:26:00,63.0,61.0,29.78,NW,318,0.0,-999.0,92,-99.99,,,-99.99,0.000000,,2013-07-21 03:26:00,
2013-07-20 23:36:00,63.0,61.0,29.78,NW,318,0.0,-999.0,92,-99.99,,,-99.99,0.000000,,2013-07-21 03:36:00,
2013-07-20 23:46:00,63.0,61.0,29.79,NW,318,0.0,-999.0,93,-99.99,,,-99.99,0.000000,,2013-07-21 03:46:00,